Flag for Norway Weather past 2 weeks in Larvik, Norway

Now
84 °F

Passing clouds.


Feels Like: 83 °F
Forecast: 64 / 75 °F
Wind: 7 mph from South

Location: Torp

Current Time: Jul 26, 2014 at 8:10:44 PM

Latest Report: Jul 26, 2014 at 7:20 PM


Visibility: N/A

Pressure: 29.98 "Hg

Humidity: 35%

Dew point: 54 °F

Location of LarvikLocation

Historic Weather in Larvik — Graph

°F

Larvik temperature yesterday

Maximum temperature yesterday: 86 °F (at 2:20 PM)
Minimum temperature yesterday: 63 °F (at 4:20 AM)
Average temperature yesterday: 76 °F

Past Weeks' High & Low Weather Summary

 TemperatureHumidityPressure
High90 °F (Jul 23, 4:20 PM)100% (Jul 14, 6:50 AM)30.30 "Hg (Jul 14, 6:50 AM)
Low52 °F (Jul 18, 4:50 AM)31% (Jul 12, 4:50 PM)29.62 "Hg (Jul 13, 8:50 PM)
Average69 °F65%30.04 "Hg
* Reported Jul 11 6:20 PM — Jul 26 6:50 PM, Larvik, Weather by CustomWeather, © 2014

Note: Actual official high and low records may vary slightly from our data, if they occured in-between our weather recording intervals... More about our weather records

Advertising

Larvik weather history for previous 24 hours

 ConditionsComfort  
Time TempWeatherWind HumidityBarometerVisibility
6:50 PM
Jul 26
86 °FPassing clouds.5 mph33%29.98 "HgN/A
6:20 PM84 °FPassing clouds.7 mph33%30.01 "HgN/A
5:50 PM84 °FPassing clouds.5 mph35%30.01 "HgN/A
5:20 PM84 °FPassing clouds.9 mph33%30.01 "HgN/A
4:50 PM84 °FPassing clouds.5 mph35%30.01 "HgN/A
4:20 PM86 °FPassing clouds.5 mph33%30.01 "HgN/A
3:50 PM86 °FPassing clouds.5 mph35%30.04 "HgN/A
3:20 PM84 °FPassing clouds.7 mph37%30.04 "HgN/A
2:50 PM86 °FPassing clouds.7 mph35%30.04 "HgN/A
2:20 PM84 °FPassing clouds.7 mph37%30.07 "HgN/A
1:50 PM84 °FPassing clouds.6 mph40%30.07 "HgN/A
1:20 PM84 °FPassing clouds.8 mph40%30.07 "HgN/A
12:50 PM82 °FPassing clouds.7 mph40%30.09 "HgN/A
12:20 PM82 °FPassing clouds.7 mph42%30.09 "HgN/A
11:50 AM82 °FSunny.3 mph45%30.09 "Hg10 mi
11:20 AM81 °FPassing clouds.6 mph48%30.09 "HgN/A
10:50 AM81 °FPassing clouds.5 mph48%30.09 "HgN/A
10:20 AM79 °FPassing clouds.5 mph54%30.09 "HgN/A
9:50 AM77 °FSunny.7 mph57%30.09 "Hg10 mi
9:20 AM77 °FSunny.9 mph57%30.09 "Hg10 mi
8:50 AM73 °FSunny.9 mph65%30.09 "Hg10 mi
8:20 AM72 °FSunny.12 mph69%30.09 "Hg10 mi
7:50 AM70 °FSunny.8 mph69%30.09 "Hg10 mi
7:20 AM70 °FSunny.8 mph69%30.09 "Hg10 mi
6:50 AM66 °FSunny.7 mph78%30.09 "Hg10 mi
6:20 AM64 °FSunny.7 mph83%30.09 "Hg10 mi
5:50 AM64 °FSunny.5 mph78%30.09 "Hg10 mi
5:20 AM63 °FMild.6 mph83%30.09 "HgN/A
4:50 AM63 °FMild.5 mph83%30.09 "HgN/A
4:20 AM64 °FMild.1 mph78%30.12 "HgN/A
3:50 AM64 °FMild.2 mph78%30.09 "HgN/A
3:20 AM64 °FMild.3 mph78%30.09 "HgN/A
2:50 AM66 °FMild.5 mph73%30.12 "HgN/A
2:20 AM68 °FMild.3 mph69%30.12 "HgN/A
1:50 AM70 °FMild.3 mph64%30.12 "HgN/A
1:20 AM70 °FMild.3 mph64%30.12 "HgN/A
12:50 AM70 °FMild.No wind60%30.12 "HgN/A
12:20 AM72 °FMild.2 mph57%30.12 "HgN/A
11:50 PM
Jul 25
72 °FPassing clouds.2 mph57%30.12 "HgN/A
11:20 PM72 °FClear.3 mph57%30.12 "Hg10 mi
10:50 PM75 °FSunny.5 mph50%30.12 "Hg10 mi
10:20 PM77 °FSunny.2 mph44%30.12 "Hg10 mi
9:50 PM79 °FSunny.5 mph42%30.12 "Hg10 mi
9:20 PM81 °FPassing clouds.3 mph42%30.12 "HgN/A
8:50 PM81 °FSunny.3 mph42%30.12 "Hg10 mi
8:20 PM82 °FSunny.5 mph37%30.12 "Hg10 mi
Weather by CustomWeather, © 2014

See weather overviewHow to use our weather pages